When you browse on this site, cookies collect data to enhance your experience and personalize the content and advertising you see.
Visit our Privacy Policy to learn more. By continuing to use the site, you agree to this use of cookies and data.
  • în România
  • Lista ţărilor
  • Pe 7 zile
  • Temperatura apei
  • Meteo pe hartă
  • Widget-uri
  • user-avatar
    Intrare

    Meteo pe oră la Abenra

    Astăzi, 20 Septembrie, Vineri

    Timp Temperatura Precipitaţii Vânt Presiune Umiditate
    00:00 +10°C° 0 mm 3 m/s 766 mmHg 79%
    01:00 +10°C° 0 mm 3 m/s 766 mmHg 79%
    02:00 +9°C° 0 mm 3 m/s 766 mmHg 83%
    03:00 +9°C° 0 mm 3 m/s 765 mmHg 86%
    04:00 +9°C° 0 mm 3 m/s 765 mmHg 90%
    05:00 +10°C° 0 mm 3 m/s 765 mmHg 90%
    06:00 +11°C° 0 mm 4 m/s 765 mmHg 90%
    07:00 +12°C° 0 mm 4 m/s 764 mmHg 90%
    08:00 +13°C° 0.1 mm 4 m/s 765 mmHg 89%
    09:00 +14°C° 0.1 mm 4 m/s 765 mmHg 88%
    10:00 +14°C° 0.1 mm 4 m/s 765 mmHg 87%
    11:00 +15°C° 0.1 mm 5 m/s 765 mmHg 83%
    12:00 +16°C° 0.1 mm 5 m/s 765 mmHg 79%
    13:00 +17°C° 0.1 mm 6 m/s 764 mmHg 76%
    14:00 +16°C° 0 mm 6 m/s 764 mmHg 76%
    15:00 +16°C° 0 mm 6 m/s 764 mmHg 77%
    16:00 +16°C° 0 mm 6 m/s 763 mmHg 78%
    17:00 +15°C° 0 mm 5 m/s 763 mmHg 83%
    18:00 +14°C° 0 mm 5 m/s 763 mmHg 88%
    19:00 +12°C° 0 mm 4 m/s 763 mmHg 94%
    20:00 +12°C° 0 mm 4 m/s 763 mmHg 94%
    21:00 +12°C° 0 mm 4 m/s 763 mmHg 95%
    22:00 +12°C° 0 mm 4 m/s 763 mmHg 96%
    23:00 +12°C° 0 mm 4 m/s 762 mmHg 96%

    Mâine, 21 Septembrie, Sâmbătă

    Timp Temperatura Precipitaţii Vânt Presiune Umiditate
    00:00 +12°C° 0 mm 4 m/s 762 mmHg 96%
    01:00 +12°C° 0 mm 4 m/s 762 mmHg 96%
    02:00 +12°C° 0 mm 4 m/s 762 mmHg 96%
    03:00 +12°C° 0 mm 4 m/s 762 mmHg 96%
    04:00 +12°C° 0 mm 4 m/s 761 mmHg 96%
    05:00 +12°C° 0 mm 4 m/s 761 mmHg 96%
    06:00 +12°C° 0 mm 4 m/s 761 mmHg 96%
    07:00 +12°C° 0 mm 3 m/s 761 mmHg 96%
    08:00 +13°C° 0 mm 4 m/s 761 mmHg 91%
    09:00 +15°C° 0 mm 4 m/s 761 mmHg 85%
    10:00 +18°C° 0 mm 4 m/s 761 mmHg 80%
    11:00 +18°C° 0 mm 4 m/s 761 mmHg 76%
    12:00 +19°C° 0 mm 4 m/s 761 mmHg 73%
    13:00 +20°C° 0 mm 4 m/s 761 mmHg 69%
    14:00 +19°C° 0 mm 3 m/s 761 mmHg 70%
    15:00 +19°C° 0 mm 3 m/s 760 mmHg 71%
    16:00 +19°C° 0 mm 2 m/s 760 mmHg 71%
    17:00 +17°C° 0 mm 2 m/s 760 mmHg 77%
    18:00 +16°C° 0 mm 2 m/s 759 mmHg 83%
    19:00 +14°C° 0 mm 1 m/s 759 mmHg 89%
    20:00 +14°C° 0 mm 1 m/s 759 mmHg 89%
    21:00 +13°C° 0 mm 1 m/s 759 mmHg 89%
    22:00 +12°C° 0 mm 0 m/s 759 mmHg 89%
    23:00 +13°C° 0 mm 1 m/s 759 mmHg 90%

    Poimâine, 22 Septembrie, Duminică

    Timp Temperatura Precipitaţii Vânt Presiune Umiditate
    00:00 +13°C° 0 mm 1 m/s 759 mmHg 90%
    01:00 +13°C° 0 mm 2 m/s 758 mmHg 91%
    02:00 +13°C° 0 mm 2 m/s 758 mmHg 90%
    03:00 +12°C° 0 mm 2 m/s 758 mmHg 89%
    04:00 +12°C° 0 mm 2 m/s 757 mmHg 89%
    05:00 +12°C° 0 mm 2 m/s 757 mmHg 88%
    06:00 +12°C° 0 mm 2 m/s 757 mmHg 87%
    07:00 +11°C° 0 mm 3 m/s 757 mmHg 86%
    08:00 +13°C° 0 mm 3 m/s 756 mmHg 80%
    09:00 +15°C° 0 mm 4 m/s 756 mmHg 74%
    10:00 +17°C° 0 mm 4 m/s 756 mmHg 68%
    11:00 +17°C° 0 mm 5 m/s 756 mmHg 65%
    12:00 +19°C° 0 mm 5 m/s 755 mmHg 62%
    13:00 +19°C° 0 mm 5 m/s 755 mmHg 60%
    14:00 +19°C° 0 mm 5 m/s 755 mmHg 61%
    15:00 +19°C° 0 mm 5 m/s 754 mmHg 63%
    16:00 +19°C° 0 mm 5 m/s 753 mmHg 64%
    17:00 +16°C° 0 mm 5 m/s 753 mmHg 69%
    18:00 +15°C° 0 mm 5 m/s 753 mmHg 73%
    19:00 +14°C° 0 mm 4 m/s 753 mmHg 78%
    20:00 +14°C° 0 mm 4 m/s 753 mmHg 80%
    21:00 +13°C° 0 mm 4 m/s 753 mmHg 83%
    22:00 +13°C° 0 mm 4 m/s 753 mmHg 86%
    23:00 +13°C° 0 mm 4 m/s 753 mmHg 86%

    23 Septembrie, Luni

    Timp Temperatura Precipitaţii Vânt Presiune Umiditate
    00:00 +13°C° 0 mm 4 m/s 752 mmHg 86%
    01:00 +12°C° 0 mm 4 m/s 752 mmHg 86%
    02:00 +12°C° 0 mm 4 m/s 752 mmHg 86%
    03:00 +12°C° 0 mm 4 m/s 752 mmHg 87%
    04:00 +11°C° 0 mm 3 m/s 752 mmHg 87%
    05:00 +12°C° 0 mm 4 m/s 752 mmHg 88%
    06:00 +12°C° 0 mm 4 m/s 752 mmHg 88%
    07:00 +12°C° 0 mm 4 m/s 752 mmHg 88%
    08:00 +13°C° 0 mm 4 m/s 752 mmHg 81%
    09:00 +15°C° 0 mm 4 m/s 752 mmHg 74%
    10:00 +16°C° 0 mm 5 m/s 752 mmHg 67%
    11:00 +17°C° 0 mm 5 m/s 752 mmHg 63%
    12:00 +19°C° 0 mm 4 m/s 752 mmHg 60%
    13:00 +19°C° 0 mm 4 m/s 752 mmHg 56%
    14:00 +19°C° 0 mm 4 m/s 752 mmHg 58%
    15:00 +19°C° 0 mm 4 m/s 752 mmHg 59%
    16:00 +19°C° 0 mm 4 m/s 752 mmHg 60%
    17:00 +17°C° 0 mm 4 m/s 752 mmHg 67%
    18:00 +14°C° 0 mm 3 m/s 752 mmHg 73%
    19:00 +13°C° 0 mm 3 m/s 752 mmHg 79%
    20:00 +13°C° 0 mm 3 m/s 752 mmHg 83%
    21:00 +12°C° 0 mm 3 m/s 753 mmHg 86%
    22:00 +12°C° 0 mm 3 m/s 753 mmHg 89%
    23:00 +12°C° 0 mm 3 m/s 753 mmHg 91%

    24 Septembrie, Marţi

    Timp Temperatura Precipitaţii Vânt Presiune Umiditate
    00:00 +12°C° 0 mm 3 m/s 753 mmHg 92%
    01:00 +12°C° 0 mm 3 m/s 753 mmHg 93%
    02:00 +12°C° 0 mm 3 m/s 753 mmHg 93%
    03:00 +11°C° 0 mm 3 m/s 753 mmHg 93%
    04:00 +12°C° 0 mm 2 m/s 753 mmHg 93%
    05:00 +11°C° 0 mm 3 m/s 753 mmHg 93%
    06:00 +12°C° 0 mm 3 m/s 753 mmHg 92%
    07:00 +12°C° 0 mm 3 m/s 754 mmHg 92%
    08:00 +13°C° 0 mm 3 m/s 754 mmHg 90%
    09:00 +14°C° 0 mm 3 m/s 754 mmHg 87%
    10:00 +15°C° 0 mm 4 m/s 755 mmHg 85%
    11:00 +16°C° 0.2 mm 3 m/s 754 mmHg 87%
    12:00 +16°C° 0.2 mm 3 m/s 754 mmHg 90%
    13:00 +14°C° 0.2 mm 3 m/s 754 mmHg 92%
    14:00 +16°C° 0.2 mm 3 m/s 754 mmHg 90%
    15:00 +16°C° 0.2 mm 3 m/s 754 mmHg 89%
    16:00 +16°C° 0.2 mm 2 m/s 754 mmHg 87%
    17:00 +16°C° 0 mm 2 m/s 753 mmHg 90%
    18:00 +15°C° 0 mm 2 m/s 753 mmHg 92%
    19:00 +14°C° 0 mm 2 m/s 753 mmHg 95%
    20:00 +14°C° 0 mm 2 m/s 753 mmHg 95%
    21:00 +13°C° 0 mm 3 m/s 753 mmHg 95%
    22:00 +12°C° 0 mm 3 m/s 752 mmHg 95%
    23:00 +13°C° 0 mm 3 m/s 752 mmHg 95%

    25 Septembrie, Miercuri

    Timp Temperatura Precipitaţii Vânt Presiune Umiditate
    00:00 +13°C° 0 mm 4 m/s 751 mmHg 95%
    01:00 +13°C° 0 mm 4 m/s 751 mmHg 95%
    02:00 +13°C° 0 mm 4 m/s 750 mmHg 95%
    03:00 +13°C° 0 mm 4 m/s 750 mmHg 94%
    04:00 +13°C° 0 mm 4 m/s 749 mmHg 93%
    05:00 +13°C° 0.2 mm 4 m/s 749 mmHg 94%
    06:00 +13°C° 0.2 mm 4 m/s 749 mmHg 94%
    07:00 +13°C° 0.2 mm 4 m/s 748 mmHg 94%
    08:00 +13°C° 0.7 mm 4 m/s 748 mmHg 94%
    09:00 +13°C° 0.7 mm 4 m/s 748 mmHg 95%
    10:00 +13°C° 0.7 mm 4 m/s 748 mmHg 95%
    11:00 +13°C° 0.5 mm 4 m/s 748 mmHg 95%
    12:00 +13°C° 0.5 mm 4 m/s 747 mmHg 95%
    13:00 +14°C° 0.5 mm 4 m/s 747 mmHg 95%
    14:00 +14°C° 0.1 mm 4 m/s 747 mmHg 94%
    15:00 +14°C° 0.1 mm 3 m/s 747 mmHg 93%
    16:00 +16°C° 0.1 mm 3 m/s 747 mmHg 92%
    17:00 +15°C° 0.1 mm 2 m/s 747 mmHg 93%
    18:00 +15°C° 0.1 mm 2 m/s 747 mmHg 93%
    19:00 +14°C° 0.1 mm 2 m/s 747 mmHg 94%
    20:00 +14°C° 0 mm 2 m/s 747 mmHg 94%
    21:00 +14°C° 0 mm 2 m/s 747 mmHg 94%
    22:00 +14°C° 0 mm 2 m/s 747 mmHg 93%
    23:00 +14°C° 0.3 mm 2 m/s 747 mmHg 94%
    Arată mai mult